Tracking 20083 objects as of 8-Dec-2019
HD Live streaming from Space Station
objects crossing your sky now

BREEZE-M R/B

Track BREEZE-M R/B now!


NORAD ID: 26738
Int'l Code: 2001-014C
Perigee: 35,725.0 km
Apogee: 37,180.8 km
Inclination: 13.1 °
Period: 1,469.9 minutes
Semi major axis: 42823 km
RCS: 0.6845 m2 (medium)
Launch date: April 7, 2001
Source: Commonwealth of Independent States (former USSR) (CIS)
Launch site: TYURATAM MISSILE AND SPACE COMPLEX (TTMTR)

Note: This is a ROCKET BODY
aabbcc
Your satellite tracking list
Your tracking list is empty




NASA's NSSDC Master Catalog

Two Line Element Set (TLE):
1 26738U 01014C   19339.87914628 -.00000177 +00000-0 +00000-0 0  9998
2 26738 013.0558 032.3999 0169979 177.0821 198.7754 00.97965712066797
Source of the keplerian elements: AFSPC